Current Version              Previous Version:    01  02  03  04  05  06  07  08  09  10  11  12  13  14  15  16  17  18  19  20  21  22  23  24  25  26  27  28  29  30  
   31  32  33  34  35  36  37  38  39  40  41  42  43  44  45  46  47  48  49  50  51  52  53  54  55  56  57  58  59  60  

[Printable]
243
ASUS44 KEWX 232010
RWRTX
SOUTH TEXAS REGIONAL WEATHER ROUNDUP
NATIONAL WEATHER SERVICE AUSTIN/SAN ANTONIO TX
300 PM CDT TUE SEP 23 2014

NOTE: "FAIR" INDICATED FEW OR NO CLOUDS BELOW 12,000 FEET WITH NO
SIGNIFICANT WEATHER AND/OR OBSTRUCTIONS TO VISIBILITY.

* - THESE STATIONS ARE NOT NWS OR FAA STATIONS...AND ARE NOT SUBJECT
    TO NWS AND FAA QUALITY CONTROL.

TXZ171-172-183>190-232100-
TEXAS HILL COUNTRY AND EDWARDS PLATEAU

CITY           SKY/WX    TMP DP  RH WIND       PRES   REMARKS
JUNCTION       MOSUNNY   85  62  46 VRB3      30.11F
*LLANO         MOSUNNY   82  59  44 E3        30.14F
BURNET         MOSUNNY   83  56  39 E3        30.14F
*HORSESHOE BAY MOSUNNY   85  56  37 CALM      30.12F
*KERRVILLE     MOSUNNY   83  65  55 E7        30.12F
*FREDERICKSBRG MOSUNNY   80  62  53 E5        30.13F
*ROCKSPRINGS   PTSUNNY   86  63  45 SE6       30.15F
*BOERNE STAGE  MOSUNNY   90  55  31 E5        30.12F
*CASTROVILLE   MOSUNNY   90  59  35 SE3       30.08F
HONDO          SUNNY     88  63  43 VRB5      30.10F
*UVALDE        SUNNY     88  70  54 E6        30.08F HX  93
DEL RIO        SUNNY     90  60  36 SE12      30.06F
LAUGHLIN AFB   MOSUNNY   89  62  39 SE10      30.06F
CARRIZO SPRGS  MOSUNNY   88  70  55 SE6       30.04F HX  92
$$

TXZ173-191>194-202-209-217>225-228-232100-
CENTRAL AND SOUTH CENTRAL TEXAS

CITY           SKY/WX    TMP DP  RH WIND       PRES   REMARKS
GEORGETOWN     NOT AVBL
AUSTIN/BERGSTM MOSUNNY   82  58  43 VRB3      30.10F
AUSTIN/MABRY   MOSUNNY   83  58  42 VRB3      30.11F
*AUSTIN/EXEC   MOSUNNY   81  57  44 E6        30.11F
*LAGO VISTA    MOSUNNY   85  54  34 E6        30.13F
SAN MARCOS     SUNNY     86  55  35 NE6       30.10F
NEW BRAUNFELS  MOSUNNY   87  57  35 NE7       30.08F
RANDOLPH AFB   MOSUNNY   86  57  36 NE8       30.09F
PT SAN ANTONIO MOSUNNY   89  59  36 VRB6      30.06F
SAN ANTONIO    PTSUNNY   89  58  34 E9        30.08F
STINSON FIELD  SUNNY     90  59  35 VRB3      30.05F
*PLEASANTON    SUNNY     89  59  36 NE7       30.08F
*LA GRANGE     SUNNY     85  59  42 NE8       30.08F
*GIDDINGS      SUNNY     82  56  39 NE5       30.14F
*GONZALES      SUNNY     85  60  42 E5        30.08F
$$

TXZ163>164-176>182-195>201-210>213-226-227-235-232100-
SOUTHEAST TEXAS

CITY           SKY/WX    TMP DP  RH WIND       PRES   REMARKS
COLLEGE STN    SUNNY     83  54  36 E12G18    30.11F
*BRYAN         SUNNY    N/A N/A N/A NE6       30.11F
*CALDWELL      SUNNY     81  54  39 NE6       30.14F
*CROCKETT      SUNNY     82  59  44 CALM      30.14F
*BRENHAM       SUNNY     83  55  37 N7        30.10F
HUNTSVILLE     MOSUNNY   82  54  37 VRB3      30.11F
CONROE         MOSUNNY   81  54  39 VRB6      30.11F
HOUSTON BUSH   PTSUNNY   83  56  39 N6        30.09F
HOUSTON HOBBY  PTSUNNY   84  53  34 N10       30.08F
*HOUSTON SW AP MOSUNNY   82  56  41 NE5       30.08F
PEARLAND       MOSUNNY   86  55  34 NE8G23    30.09F
HOUSTON HOOKS  MOSUNNY   82  54  37 VRB7      30.10F
ELLINGTON FLD  PTSUNNY   82  55  39 NE9       30.09F
SUGAR LAND     MOSUNNY   83  55  38 NE10      30.08F
*HOUSTON EXEC  MOSUNNY   81  55  41 N8        30.10F
*CLEVELAND MUN MOSUNNY   80  62  53 CALM      30.11F
*WHARTON       MOSUNNY   83  52  34 N9        30.08F
$$

TXZ214>216-236>238-232100-
THE UPPER TEXAS COAST

CITY           SKY/WX    TMP DP  RH WIND       PRES   REMARKS
*ORANGE        MOSUNNY   82  52  34 N6        30.10F
PORT ARTHUR    MOSUNNY   82  56  40 NE8       30.08F
GALVESTON      MOSUNNY   81  64  56 E10       30.08F
ANGLETON       MOSUNNY   84  59  42 NE10      30.07F
*BAY CITY      MOSUNNY   85  60  43 NE8       30.07F
PALACIOS       MOSUNNY   86  64  47 VRB7      30.06F
$$

TXZ229>234-239>247-232100-
TEXAS COASTAL BEND AND RIO GRANDE PLAINS

CITY           SKY/WX    TMP DP  RH WIND       PRES   REMARKS
VICTORIA       MOSUNNY   89  60  37 NE10      30.07F
*BEEVILLE      MOSUNNY   88  58  36 MISG      30.05F
ROCKPORT       MOSUNNY   85  67  54 E12       30.04F
*PORT ARANSAS  MOSUNNY   82  71  69 E14G20    30.05F
*PORT LAVACA   MOSUNNY   85  63  47 NE9       30.06F
*INGLESIDE     PTSUNNY   87  67  51 E15       30.04F
CORPUS CHRISTI PTSUNNY   89  68  49 E13       30.03F HX  93
CORPUS NAS     PTSUNNY   85  72  65 NE14      30.04F HX  91
*ROBSTOWN      MOSUNNY   89  67  48 E7G17     30.03F HX  92
ALICE          MOSUNNY   89  69  51 N3        30.03F HX  93
KINGSVILLE NAS PTSUNNY   91  73  55 NE10G22   30.02F HX  99
COTULLA        MOSUNNY   90  67  46 E8        30.05F HX  93
*FAITH RANCH   MOSUNNY   86  66  51 E8        30.08F
LAREDO         PTSUNNY   88  67  49 CALM      30.06F HX  91
$$

TXZ248>255-232100-
DEEP SOUTH TEXAS

CITY           SKY/WX    TMP DP  RH WIND       PRES   REMARKS
BROWNSVILLE    PTSUNNY   89  72  56 NE8       30.00F HX  96
PORT ISABEL    SUNNY     85  73  67 N13       30.00F HX  91
*SOUTH PADRE   SUNNY     86  75  70 N9        30.00F HX  95
HARLINGEN      MOSUNNY   85  77  77 NE10      30.00F HX  95
*HEBBRONVILLE    N/A     85  70  59 E6        30.06F
MCALLEN        MOSUNNY   85  74  69 N12       30.01F HX  92
*WESLACO       PTSUNNY   87  71  58 NE10      30.01F HX  92
FALFURRIAS     PTSUNNY  N/A N/A N/A NE8       30.01F
EDINBURG       MOSUNNY   87  71  59 NE6       30.02F HX  92
*ZAPATA        PTSUNNY   88  69  53 E10       30.03F HX  92
$$

TXZ213>215-236>238-242>244-246-247-251-254-255-232100-
CMAN STATIONS

STATION/POSITION TIME  TEMP    WIND        PRES    WAVE
                       AIR SEA DIR/SP/G            HT/PER
                 (UTC) (F)     (DEG/KT/KT) (MB)    (FT/S)
SABINE PASS      2000   81 83   30/  7/ 11 1018.7
SEA RIM ST PARK  2000   81      10/ 10/ 13 1018.7
NORTH JETTY/GLS  2000   80 80  110/ 12/ 14   N/A
EAGLE POINT      2000   80 80   40/  8/ 10 1018.7
MORGANS POINT    2000   80      40/  8/ 11 1018.6
MISSION/ARANSAS  1900           20/ 10     1019.0
PORT O`CONNOR    2000           50/  7/  9   N/A
PORT ARANSAS     2000   80 84   40/ 15/ 17 1017.9
MALAQUITE BEACH  2000   80 84   30/ 15/ 17 1017.0
BAFFIN BAY       2000   82 85   50/ 15/ 17 1017.3
PORT ISABEL      2000   83 84   10/ 10/ 13 1016.6
$$

GMZ080-GMZ150>470-232100-
OFFSHORE BUOY REPORTS

STATION/POSITION TIME  TEMP    WIND        PRES    WAVE
                       AIR SEA DIR/SP/G            HT/PER
                 (UTC) (F)     (DEG/KT/KT) (MB)    (FT/S)
20 E GALVESTON   2000   77 83   50/ 12/ 16 1017.8    3/ 6
90 E PT ARANSAS  2000   81 84   30/ 14/ 16 1017.1    4/ 7
35 NE PT MANSFLD 2000   83 85   40/ 12/ 16 1015.7    4/ 6
200 E PT ISABEL  2000   84 85   60/ 12/ 16 1014.8    5/ 7
$$